Temperature
14 14 14 14 14 13 13 13 13 13 13 12 12 12 12 12 12 12 12 12 12 12 12 12 11 11 11 11 11 11 11 10 10 10 10 10 10 10 10 10 10 10 10
14 14 14 14 13 13 13 13 13 12 12 12 12 12 12 12 12 12 12 12 12 11 11 11 11 11 11 11 10 10 10 10 10 10 10 10 10 10 10 10 10 10 10
14 14 14 13 13 13 13 13 13 12 12 12 12 12 12 12 12 12 11 11 11 11 11 11 11 11 10 10 10 10 10 10 10 10 10 10 10 9 9 9 9 9 9
14 13 13 13 13 13 13 12 12 12 12 12 12 11 11 11 11 11 11 11 11 11 11 11 11 10 10 10 10 10 10 10 10 10 9 9 9 9 9 9 9 9 9
13 13 13 13 13 12 12 12 12 12 12 11 11 11 11 11 11 11 11 11 10 10 10 10 10 10 10 10 10 10 10 10 9 9 9 9 9 9 9 9 8 8 9
13 13 13 12 12 12 12 12 12 12 11 11 11 11 11 11 11 10 10 10 10 10 10 10 10 10 10 10 10 10 10 9 9 9 9 9 9 9 8 8 8 8 8
13 13 13 12 12 12 12 12 11 11 11 11 11 11 11 10 10 10 10 10 10 10 10 10 10 10 10 10 10 9 9 9 9 9 9 9 8 8 8 8 8 8 8
13 13 12 12 12 12 11 11 11 11 11 11 10 10 10 10 10 10 10 10 10 9 9 9 9 9 9 9 9 9 9 9 9 9 8 8 8 8 8 8 8 8 8
12 12 12 12 12 11 11 11 11 10 10 10 10 10 10 10 10 10 9 9 9 9 9 9 9 9 9 9 9 9 9 9 8 8 8 8 8 8 8 7 7 7 7
12 12 12 12 11 11 11 11 10 10 10 10 10 10 10 10 9 9 9 9 9 9 9 9 9 8 8 8 8 8 8 8 8 8 8 8 8 8 7 7 7 7 7
12 12 11 11 11 11 11 10 10 10 10 10 9 9 9 9 9 9 9 9 9 9 9 8 8 8 8 8 8 8 8 8 8 8 8 8 7 7 7 7 7 6 6
12 11 11 11 11 10 10 10 10 10 9 9 9 9 9 9 9 9 8 8 8 8 8 8 8 8 8 8 8 8 7 7 7 7 7 7 7 7 7 7 7 6 6
11 11 11 11 10 10 10 10 9 9 9 9 9 9 9 8 8 8 8 8 8 8 8 8 7 7 7 7 7 7 7 7 7 7 7 7 7 7 7 6 6 6 6
11 11 10 10 10 10 10 9 9 9 9 8 8 8 8 8 8 8 8 7 7 7 7 7 7 7 7 7 7 7 7 7 7 6 6 6 6 6 6 6 6 6 6
10 10 10 10 10 9 9 9 9 9 8 8 8 8 8 8 8 7 7 7 7 7 7 7 7 7 7 7 7 6 6 6 6 6 6 6 6 6 6 6 6 6 5
10 10 9 9 9 9 9 9 8 8 8 8 8 8 7 7 7 7 7 7 7 7 6 6 6 6 6 6 6 6 6 6 6 6 6 6 5 5 5 5 5 5 5
10 9 9 9 9 8 8 8 8 8 7 7 7 7 7 7 7 7 7 7 7 6 6 6 6 6 6 6 6 6 6 6 6 5 5 5 5 5 5 5 5 5 5
9 9 9 9 8 8 8 8 8 7 7 7 7 7 7 7 7 7 6 6 6 6 6 6 6 6 5 5 5 5 5 5 5 5 5 5 5 5 5 5 4 4 5
9 9 8 8 8 8 8 7 7 7 7 7 7 6 6 6 6 6 6 6 6 6 6 5 5 5 5 5 5 5 5 5 5 5 5 5 5 4 4 4 4 4 4
8 8 8 8 8 7 7 7 7 7 6 6 6 6 6 6 6 6 6 6 6 5 5 5 5 5 5 5 5 5 4 4 4 4 4 4 4 4 4 4 4 4 4
8 8 7 7 7 7 7 7 6 6 6 6 6 6 6 6 5 5 5 5 5 5 5 5 5 5 5 5 4 4 4 4 4 4 4 4 4 4 4 4 4 4 4
7 7 7 7 7 6 6 6 6 6 6 5 5 5 5 5 5 5 5 5 5 5 5 4 4 4 4 4 4 4 4 4 4 4 4 4 4 4 4 4 4 4 3
7 7 6 6 6 6 6 6 5 5 5 5 5 5 5 5 5 5 5 5 4 4 4 4 4 4 4 4 4 3 3 3 4 3 3 3 3 3 3 3 3 3 3
6 6 6 6 6 6 5 5 5 5 5 5 4 4 4 4 4 4 4 4 4 4 4 4 4 3 3 3 3 3 3 3 3 3 3 3 3 3 3 3 3 3 3
6 6 5 5 5 5 5 5 5 5 4 4 4 4 4 4 4 4 4 4 4 4 4 3 3 3 3 3 3 3 3 3 3 3 3 3 3 3 3 3 3 3 3
5 5 5 5 5 4 4 4 4 4 4 4 4 4 3 3 4 4 4 4 3 3 3 3 3 3 3 3 2 2 2 2 2 2 2 2 2 2 2 2 2 2 2
Wind_Speed
2 2 3 3 2 2 2 2 2 2 1 1 1 1 1 1 1 2 2 2 2 2 2 2 2 1 1 1 1 1 1 2 2 2 1 1 1 1 3 4 4 4 5
2 2 2 2 2 2 2 2 2 2 2 1 1 1 1 1 1 2 2 2 3 3 3 2 2 2 2 2 2 2 2 2 3 2 1 1 1 1 2 3 4 4 4
2 2 2 2 2 2 2 2 2 2 1 1 1 1 1 1 1 1 2 2 3 3 3 4 3 3 3 2 2 2 2 2 2 2 1 0 1 1 2 2 3 4 5
3 3 2 2 2 3 2 2 2 2 1 1 1 1 1 1 1 1 1 1 2 2 3 3 4 5 5 4 3 3 3 2 2 2 1 0 1 1 1 1 2 3 3
3 3 2 2 2 2 2 2 2 2 2 2 1 1 1 1 1 1 2 1 1 1 1 2 3 4 4 4 3 4 4 3 2 2 1 0 0 0 1 1 1 2 3
3 2 2 2 2 2 2 1 2 1 1 2 1 1 1 1 1 1 2 2 1 1 2 2 2 2 3 3 4 5 5 5 4 3 2 2 2 2 1 1 1 1 2
2 2 2 2 2 2 2 2 2 2 2 1 1 1 1 1 1 1 2 2 1 1 1 1 1 1 1 1 2 3 3 4 5 4 3 4 3 4 3 2 2 2 2
2 2 2 2 2 2 2 2 2 2 2 2 2 2 1 1 1 1 1 2 1 1 1 1 1 1 1 2 2 2 1 2 3 3 4 4 3 3 4 3 3 1 1
3 3 3 3 3 3 3 3 2 2 2 2 1 2 1 1 1 1 2 2 1 0 0 0 1 2 2 2 3 2 1 1 2 2 2 2 1 2 2 2 2 1 2
5 4 3 3 4 4 4 3 2 2 2 2 1 1 2 2 2 2 3 2 1 0 1 1 1 1 1 2 3 3 2 2 1 1 1 1 1 1 3 3 3 2 1
4 3 3 3 4 4 3 2 2 2 2 2 1 1 1 2 2 2 3 2 2 1 1 1 1 1 1 2 2 3 3 2 1 1 0 0 1 0 1 1 2 3 3
3 3 3 2 2 2 3 2 3 3 3 2 1 1 1 1 2 2 2 2 2 2 2 2 2 2 1 1 2 1 1 0 1 1 0 1 1 2 2 2 3 3 3
3 3 3 2 2 3 4 3 3 3 3 2 2 2 2 1 2 3 3 2 2 2 2 3 2 2 1 1 1 1 1 1 1 1 1 2 2 2 1 1 1 1 2
4 4 3 3 2 2 3 3 3 3 3 3 3 3 2 2 2 2 2 1 1 2 1 2 2 1 1 1 0 0 1 1 2 2 2 2 1 1 1 1 1 1 1
4 4 3 3 3 2 2 3 4 4 5 5 4 4 3 3 4 5 3 2 2 2 1 0 0 0 0 0 1 1 1 1 1 2 2 2 2 1 2 1 1 1 1
4 4 3 3 3 2 2 1 2 3 4 4 4 3 4 4 4 4 4 4 5 4 3 2 2 2 2 2 2 2 2 2 2 2 2 2 2 2 2 2 2 2 3
5 4 3 3 3 3 3 3 2 2 2 3 3 3 2 3 3 3 3 4 4 5 3 2 2 3 3 3 3 3 3 3 3 2 3 3 3 3 3 3 3 3 4
5 5 4 4 4 4 4 3 3 3 2 2 2 2 2 2 2 2 2 3 2 2 2 3 3 3 3 3 3 3 3 3 2 3 3 3 3 3 3 4 4 4 4
4 4 4 4 4 3 3 3 3 3 3 2 1 1 1 1 1 1 2 2 2 2 2 3 3 3 3 3 3 3 3 3 3 3 3 3 3 3 3 4 4 5 4
4 6 5 4 4 3 3 3 3 3 3 3 2 2 1 1 1 1 1 1 2 2 2 3 3 3 3 3 3 3 3 3 3 3 3 3 3 3 4 4 4 4 4
3 4 5 3 3 4 3 4 4 4 4 3 3 3 4 3 3 3 3 2 2 3 3 3 3 3 3 3 3 3 4 3 3 3 3 3 3 3 3 4 4 4 4
3 3 3 4 3 3 3 3 3 3 4 4 3 2 4 2 3 3 3 3 3 3 3 3 3 3 3 4 4 3 3 4 4 3 4 4 4 4 4 4 4 4 4
3 3 3 3 3 4 4 3 3 4 4 4 4 3 3 3 3 3 4 3 3 3 3 3 3 3 3 3 3 4 4 5 5 4 4 4 4 4 4 4 5 4 4
3 3 3 3 3 3 4 4 4 4 4 4 4 4 4 4 4 4 4 3 3 3 3 3 3 4 4 3 3 4 5 5 5 5 5 4 4 4 4 4 4 5 5
3 3 3 4 4 4 4 4 4 4 4 4 4 4 4 4 4 4 3 3 3 3 4 4 3 4 5 5 5 5 7 7 6 4 4 4 4 4 4 4 4 4 4
3 3 3 3 4 4 4 4 4 4 4 4 4 4 4 4 4 4 4 4 3 4 4 4 4 5 5 6 7 7 7 7 6 5 4 3 4 4 4 4 5 4 4
Wind_Direction
162 164 164 172 169 153 164 190 191 185 168 159 164 167 169 158 153 150 185 170 160 169 172 167 181 161 153 153 144 149 150 147 182 267 270 304 335 347 353 358 355 355 349
172 157 166 170 153 160 190 205 187 182 182 178 151 147 162 152 168 177 190 174 176 189 199 179 192 174 169 176 170 179 180 174 170 211 266 303 320 317 338 349 349 350 345
149 143 144 161 167 190 204 201 183 181 183 155 134 164 172 169 173 186 195 193 193 199 198 196 201 183 195 196 189 189 189 173 155 165 211 265 313 332 354 344 347 347 342
150 150 166 192 194 203 199 185 184 178 166 163 180 203 193 186 187 184 176 191 200 204 205 206 203 199 203 195 193 191 170 154 143 147 177 220 264 313 3 336 336 345 336
152 162 199 207 189 178 170 178 174 164 165 165 158 165 165 174 199 175 176 184 192 213 226 228 221 213 208 196 194 186 171 166 160 162 186 190 251 254 249 246 295 324 321
162 182 200 182 171 171 173 163 151 153 161 153 161 163 174 237 237 195 171 177 187 204 232 249 247 231 225 215 209 196 179 175 184 185 202 214 232 225 214 227 228 317 304
168 179 183 177 176 188 179 153 167 178 162 166 184 174 195 239 229 206 181 161 173 205 226 236 252 263 225 192 198 199 209 211 196 192 197 219 218 215 192 206 220 227 244
166 184 199 183 185 187 167 177 195 184 180 194 203 201 200 252 253 213 172 141 143 181 214 224 223 253 229 186 166 148 195 229 228 206 203 218 219 199 192 198 202 191 294
185 199 208 194 188 184 187 202 204 188 194 201 197 189 189 249 255 201 152 140 141 229 271 280 216 233 251 168 143 161 214 281 274 238 230 236 235 195 159 118 114 103 298
205 208 206 194 190 199 206 208 200 187 200 188 191 196 190 224 237 197 158 142 155 224 313 307 296 260 261 171 162 177 221 254 271 324 335 336 346 186 182 177 178 185 245
201 195 192 193 197 202 198 187 175 173 161 164 184 220 211 229 236 214 183 166 182 189 224 270 286 312 280 198 180 193 227 226 185 195 245 343 42 84 224 241 207 197 214
178 183 195 194 195 185 169 176 170 166 164 176 181 250 264 253 244 236 211 190 175 179 215 232 251 280 286 241 203 224 244 186 145 162 200 274 270 262 258 252 253 248 240
172 192 205 196 191 179 171 174 173 173 177 193 193 222 260 262 250 240 225 201 196 196 217 222 234 252 287 286 264 224 123 129 154 189 233 248 251 256 256 277 290 308 314
182 193 196 194 196 181 179 180 182 189 193 200 204 223 244 253 249 239 228 224 215 221 228 241 248 254 244 261 288 265 207 192 194 217 240 248 250 251 247 241 255 275 298
186 193 194 193 192 197 196 198 198 206 202 203 211 207 210 232 236 215 197 207 204 202 170 130 132 346 322 292 289 274 257 227 232 235 238 254 252 251 258 248 236 238 245
185 193 197 194 192 195 200 240 231 218 227 225 220 212 223 224 216 207 206 205 202 180 154 171 209 224 234 242 247 261 253 247 244 241 239 240 246 250 255 254 238 234 250
192 199 200 196 196 197 196 200 228 272 247 238 232 221 219 217 205 201 200 190 182 162 162 195 218 231 237 236 237 238 244 247 241 237 243 244 243 246 250 252 248 249 254
194 200 199 201 198 198 203 207 206 208 227 267 263 234 221 215 206 196 177 135 145 160 182 204 224 235 236 237 238 240 243 245 241 242 243 246 244 243 248 253 248 244 252
197 201 200 199 197 197 200 202 204 205 211 225 276 282 240 206 208 193 148 140 174 206 217 226 233 238 241 243 243 239 235 237 238 237 243 246 244 242 250 254 255 258 256
208 213 204 194 192 194 196 200 204 206 209 211 219 227 190 143 165 208 203 199 202 224 230 235 239 241 242 244 243 238 234 236 235 236 243 245 244 240 247 253 254 256 256
208 209 208 201 195 199 203 209 209 206 212 218 228 223 198 193 203 209 216 223 224 230 234 240 244 241 241 242 237 234 231 236 237 237 240 245 248 248 251 252 256 259 263
204 206 201 200 202 203 208 212 210 212 216 219 234 231 211 205 211 217 226 233 234 232 232 231 239 243 243 239 231 232 231 234 238 241 246 246 243 246 248 250 256 259 260
199 201 206 208 207 209 210 205 206 212 217 218 215 212 210 216 226 229 231 234 234 235 228 222 238 250 244 238 232 226 229 231 232 231 240 245 242 246 251 252 252 256 257
197 201 207 209 209 208 209 212 211 213 216 214 214 214 213 216 223 229 233 234 229 233 228 222 230 242 244 241 243 244 245 246 241 228 225 235 242 247 254 261 259 259 255
199 203 209 214 213 215 216 216 215 213 215 217 215 216 217 217 222 225 227 225 228 235 234 230 231 241 246 245 248 252 258 254 251 249 229 226 236 242 249 258 265 268 259
207 213 219 219 215 213 213 217 217 215 216 218 216 215 216 218 222 224 223 220 226 236 239 235 237 244 252 251 254 259 261 257 253 256 242 225 231 241 245 252 261 260 259
Height
1515 1516 1517 1517 1518 1518 1519 1519 1519 1519 1520 1520 1520 1520 1520 1520 1520 1520 1520 1520 1521 1521 1522 1522 1522 1523 1523 1523 1523 1523 1523 1523 1523 1523 1523 1523 1523 1522 1522 1522 1522 1521 1521
1514 1515 1515 1516 1516 1516 1517 1517 1517 1518 1518 1518 1518 1518 1518 1518 1517 1518 1518 1518 1518 1519 1519 1520 1520 1521 1521 1521 1521 1521 1521 1521 1521 1520 1521 1521 1521 1521 1520 1520 1520 1519 1519
1512 1512 1513 1513 1514 1514 1515 1515 1515 1516 1516 1516 1516 1516 1516 1516 1516 1516 1515 1515 1516 1516 1517 1517 1518 1518 1518 1518 1518 1518 1519 1519 1519 1519 1518 1518 1519 1519 1518 1518 1518 1517 1517
1510 1510 1511 1511 1512 1512 1512 1513 1513 1513 1514 1514 1514 1514 1514 1514 1514 1513 1513 1513 1513 1514 1514 1515 1515 1515 1516 1516 1516 1516 1516 1517 1517 1517 1516 1516 1517 1517 1517 1516 1515 1515 1515
1508 1508 1509 1509 1510 1510 1510 1510 1511 1511 1512 1512 1512 1512 1512 1512 1512 1512 1511 1511 1511 1511 1512 1512 1512 1513 1513 1513 1513 1513 1514 1514 1514 1514 1514 1514 1514 1514 1514 1514 1513 1513 1513
1506 1506 1506 1507 1507 1507 1508 1508 1508 1509 1509 1510 1510 1510 1510 1509 1509 1509 1509 1509 1509 1509 1509 1509 1510 1510 1510 1510 1511 1511 1512 1512 1512 1512 1512 1512 1512 1512 1512 1512 1511 1511 1510
1503 1504 1504 1505 1505 1505 1505 1505 1506 1506 1507 1507 1507 1507 1507 1507 1507 1507 1507 1507 1507 1507 1507 1507 1507 1507 1507 1508 1508 1508 1509 1509 1510 1510 1510 1510 1510 1510 1510 1509 1509 1509 1508
1500 1501 1502 1502 1502 1502 1503 1503 1503 1503 1504 1504 1504 1505 1505 1505 1505 1505 1505 1505 1504 1505 1505 1505 1505 1505 1505 1505 1505 1505 1506 1506 1507 1507 1507 1508 1508 1508 1508 1508 1507 1507 1506
1498 1498 1499 1499 1499 1500 1500 1500 1500 1501 1501 1501 1502 1502 1502 1502 1502 1502 1502 1502 1502 1502 1502 1502 1502 1502 1503 1503 1502 1503 1503 1504 1504 1504 1505 1505 1505 1505 1505 1505 1504 1504 1503
1495 1496 1496 1496 1497 1497 1497 1497 1498 1498 1498 1499 1499 1499 1499 1499 1500 1500 1500 1500 1499 1499 1500 1500 1500 1500 1500 1500 1500 1500 1500 1501 1501 1501 1502 1502 1502 1502 1502 1502 1502 1501 1500
1493 1493 1494 1494 1494 1494 1494 1494 1495 1495 1496 1496 1496 1496 1496 1497 1497 1497 1497 1497 1497 1497 1497 1497 1497 1497 1497 1498 1498 1498 1498 1498 1498 1498 1498 1499 1499 1499 1499 1499 1499 1498 1498
1490 1490 1490 1491 1491 1491 1491 1491 1491 1492 1492 1492 1493 1493 1493 1494 1494 1494 1495 1495 1494 1494 1494 1494 1494 1494 1495 1495 1495 1495 1495 1495 1495 1495 1495 1495 1495 1495 1495 1495 1495 1495 1495
1486 1487 1487 1487 1487 1488 1488 1488 1488 1489 1489 1489 1489 1489 1490 1490 1491 1491 1491 1491 1491 1491 1491 1491 1491 1492 1492 1492 1492 1492 1492 1492 1492 1492 1491 1491 1492 1492 1492 1492 1492 1492 1491
1483 1483 1484 1484 1484 1484 1484 1484 1484 1485 1485 1485 1486 1486 1486 1487 1487 1487 1487 1488 1488 1488 1488 1488 1488 1488 1488 1488 1489 1489 1489 1489 1489 1489 1488 1488 1488 1488 1488 1488 1488 1487 1487
1479 1479 1480 1480 1480 1480 1481 1481 1481 1481 1482 1482 1482 1483 1483 1482 1483 1484 1484 1484 1484 1484 1484 1484 1484 1484 1484 1484 1485 1485 1485 1485 1485 1485 1485 1485 1484 1484 1484 1484 1484 1483 1483
1475 1475 1475 1476 1476 1477 1477 1477 1478 1478 1479 1479 1479 1480 1479 1480 1480 1480 1480 1480 1480 1480 1480 1480 1480 1480 1480 1480 1480 1481 1481 1481 1481 1481 1481 1481 1481 1481 1480 1480 1480 1480 1479
1471 1471 1472 1472 1472 1473 1473 1473 1473 1474 1475 1475 1475 1475 1476 1476 1476 1476 1476 1476 1476 1476 1476 1476 1476 1476 1476 1477 1477 1477 1477 1477 1477 1477 1477 1477 1477 1477 1476 1476 1476 1475 1475
1468 1468 1468 1468 1468 1469 1469 1469 1469 1469 1469 1470 1471 1471 1472 1472 1472 1472 1472 1471 1471 1471 1471 1472 1472 1472 1473 1473 1473 1473 1473 1473 1473 1473 1473 1473 1473 1472 1472 1472 1471 1471 1470
1463 1463 1464 1464 1464 1465 1465 1465 1465 1465 1466 1466 1467 1467 1468 1468 1468 1468 1468 1467 1467 1467 1468 1468 1468 1469 1469 1469 1469 1468 1468 1468 1468 1468 1468 1468 1468 1468 1468 1467 1467 1467 1466
1459 1459 1460 1460 1460 1460 1461 1461 1461 1461 1462 1462 1462 1463 1463 1464 1463 1463 1464 1464 1464 1464 1464 1464 1464 1464 1464 1464 1464 1464 1464 1464 1464 1464 1464 1464 1464 1464 1463 1463 1463 1462 1461
1455 1455 1455 1456 1456 1456 1456 1457 1457 1457 1457 1457 1458 1459 1459 1460 1459 1460 1460 1460 1460 1460 1460 1460 1460 1460 1460 1460 1459 1459 1459 1459 1459 1459 1459 1459 1459 1459 1459 1459 1458 1458 1457
1451 1451 1451 1451 1451 1452 1452 1453 1453 1453 1453 1453 1453 1454 1455 1455 1455 1455 1455 1456 1456 1456 1456 1456 1455 1455 1455 1455 1455 1455 1454 1454 1454 1455 1455 1455 1455 1455 1454 1454 1453 1453 1452
1447 1447 1447 1447 1447 1448 1448 1448 1448 1448 1448 1449 1449 1449 1449 1450 1450 1450 1451 1451 1451 1451 1451 1451 1451 1450 1450 1450 1450 1450 1450 1450 1450 1450 1450 1450 1450 1450 1450 1449 1448 1448 1447
1443 1443 1443 1442 1443 1443 1443 1443 1443 1444 1444 1444 1444 1444 1444 1445 1445 1446 1446 1447 1447 1447 1447 1447 1446 1446 1446 1446 1445 1445 1446 1446 1446 1446 1446 1446 1445 1445 1445 1444 1444 1443 1443
1438 1438 1438 1438 1438 1438 1438 1438 1438 1438 1439 1439 1439 1439 1440 1440 1440 1441 1441 1442 1442 1442 1442 1442 1442 1441 1441 1441 1441 1441 1440 1441 1441 1441 1441 1441 1440 1440 1440 1440 1439 1438 1438
1434 1434 1434 1433 1433 1433 1434 1434 1434 1434 1434 1434 1434 1434 1434 1435 1435 1436 1436 1437 1437 1437 1437 1437 1437 1437 1436 1436 1436 1435 1435 1435 1435 1435 1436 1435 1435 1435 1435 1435 1434 1434 1433